TimeCDT,TemperatureF,Dew PointF,Humidity,Sea Level PressureIn,VisibilityMPH,Wind Direction,Wind SpeedMPH,Gust SpeedMPH,PrecipitationIn,Events,Conditions,WindDirDegrees,DateUTC
12:52 AM,46.9,37.0,68,30.10,10.0,NW,9.2,-,N/A,,Clear,310,2013-10-16 05:52:00
1:52 AM,42.1,36.0,79,30.11,10.0,West,5.8,-,N/A,,Clear,280,2013-10-16 06:52:00
2:52 AM,44.1,37.0,76,30.11,10.0,WNW,5.8,-,N/A,,Mostly Cloudy,290,2013-10-16 07:52:00
3:49 AM,48.2,37.4,66,30.09,10.0,NW,13.8,-,N/A,,Mostly Cloudy,320,2013-10-16 08:49:00
3:52 AM,48.0,37.9,68,30.09,10.0,NW,11.5,-,N/A,,Mostly Cloudy,320,2013-10-16 08:52:00
4:04 AM,46.9,37.0,68,30.09,10.0,NW,10.4,-,N/A,,Scattered Clouds,320,2013-10-16 09:04:00
4:52 AM,48.0,37.0,66,30.09,10.0,NW,11.5,-,N/A,,Mostly Cloudy,310,2013-10-16 09:52:00
5:52 AM,43.0,37.0,80,30.10,10.0,WNW,5.8,-,N/A,,Partly Cloudy,300,2013-10-16 10:52:00
6:52 AM,41.0,36.0,82,30.10,10.0,NNW,3.5,-,N/A,,Clear,330,2013-10-16 11:52:00
7:52 AM,41.0,36.0,82,30.12,10.0,NW,4.6,-,N/A,,Partly Cloudy,320,2013-10-16 12:52:00
8:52 AM,46.9,39.9,77,30.13,10.0,Variable,4.6,-,N/A,,Scattered Clouds,0,2013-10-16 13:52:00
9:52 AM,50.0,37.9,63,30.13,10.0,WNW,11.5,-,N/A,,Mostly Cloudy,300,2013-10-16 14:52:00
10:52 AM,52.0,37.9,59,30.12,10.0,NW,11.5,-,N/A,,Partly Cloudy,310,2013-10-16 15:52:00
11:52 AM,55.0,37.9,53,30.10,10.0,West,6.9,-,N/A,,Clear,270,2013-10-16 16:52:00
12:52 PM,57.0,37.9,49,30.09,10.0,NNW,8.1,-,N/A,,Clear,330,2013-10-16 17:52:00
1:52 PM,59.0,39.9,49,30.06,10.0,NW,9.2,-,N/A,,Clear,310,2013-10-16 18:52:00
2:52 PM,60.1,39.0,46,30.03,10.0,NW,4.6,-,N/A,,Clear,320,2013-10-16 19:52:00
3:52 PM,59.0,37.9,46,30.01,10.0,NW,3.5,-,N/A,,Clear,310,2013-10-16 20:52:00
4:52 PM,57.9,37.9,47,30.00,10.0,NW,6.9,-,N/A,,Clear,320,2013-10-16 21:52:00
5:52 PM,57.0,37.9,49,30.01,10.0,NW,4.6,-,N/A,,Partly Cloudy,310,2013-10-16 22:52:00
6:52 PM,55.0,39.0,55,30.03,10.0,WNW,5.8,-,N/A,,Mostly Cloudy,290,2013-10-16 23:52:00
7:52 PM,52.0,43.0,71,30.03,10.0,Calm,Calm,-,N/A,,Overcast,0,2013-10-17 00:52:00
8:52 PM,51.1,44.1,77,30.03,10.0,Calm,Calm,-,N/A,,Overcast,0,2013-10-17 01:52:00
9:52 PM,51.1,45.0,80,30.02,10.0,Calm,Calm,-,0.00,Rain,Light Rain,0,2013-10-17 02:52:00
10:52 PM,52.0,42.1,69,30.03,10.0,WSW,5.8,-,0.00,Rain,Light Rain,250,2013-10-17 03:52:00
11:52 PM,48.0,44.1,86,30.02,10.0,Calm,Calm,-,0.00,,Overcast,0,2013-10-17 04:52:00